Вернуться в каталог

COSMOS 2256

АктивенВоенныеPO
NORAD 22691·PAYLOAD·🇷🇺 Russia

Запущен Jun 24, 1993 с Plesetsk Cosmodrome

Loading…

Ближайшие Пролёты (ближайшие 24 часа)

TLE

СвежийSource: Space-Track

Эпоха: Sep 14, 2026, 11:11 UTC

1 22691U 93038E   26257.46603044  .00000038  00000-0  15091-3 0  9992
2 22691  82.5783 154.5390 0007294 135.6488  37.2803 12.63949397533095

Отслеживайте COSMOS 2256 в реальном времени с AllMySat

Download on the App Store